Change the Weather History Date:

Friday, May 10, 2013

  Actual Average Record
Temperature  
Mean Temperature 71 °F 73 °F  
Max Temperature 81 °F 85 °F 96 °F (1955)
Min Temperature 60 °F 61 °F 51 °F (1966)
Cooling Degree Days 6 8  
Month to date cooling degree days 23 70  
Year to date cooling degree days 153 191  
Growing Degree Days 20 (Base 50)    
Moisture  
Dew Point 60 °F    
Average Humidity 74    
Maximum Humidity 100    
Minimum Humidity 40    
Precipitation  
Precipitation 0.00 in 0.09 in 1.58 in (2006)
Month to date precipitation 0.03 0.95  
Year to date precipitation 12.89 19.75  
Sea Level Pressure  
Sea Level Pressure 30.08 in    
Wind  
Wind Speed 5 mph (SSW)    
Max Wind Speed 21 mph    
Max Gust Speed 28 mph    
Visibility 8 miles    
Events      
T = Trace of Precipitation, MM = Missing Value Source: NWS Daily Summary

Daily Weather History Graph

Daily Weather History Graph

Search for Another Location

Airport or City:

Trip Planner

Search our weather history database for the weather conditions in past years. The results will help you decide how hot, cold, wet, or windy it might be!

Date:

Astronomy

May. 10, 2013 Rise Set
Actual Time 5:49 AM CDT 7:27 PM CDT
Civil Twilight 5:22 AM CDT 7:54 PM CDT
Nautical Twilight 4:51 AM CDT 8:25 PM CDT
Astronomical Twilight 4:18 AM CDT 8:59 PM CDT
Moon 6:13 AM CDT (5/10) 8:14 PM CDT (5/10)
Length of Visible Light 14h 31m
Length of Day
13h 38m
New Moon, 0% of the Moon is Illuminated
May 10
New Moon
May 17
First Quarter
May 24
Full
May 31
Last Quarter
Jun 8
New

Hourly Weather History & Observations

Time (CDT) Temp. Heat Index Dew Point Humidity Pressure Visibility Wind Dir Wind Speed Gust Speed Precip Events Conditions
1:53 AM 63.0 °F - 60.1 °F 90% 30.11 in 10.0 mi SSW 3.5 mph - N/A   Clear
2:53 AM 62.1 °F - 61.0 °F 96% 30.09 in 9.0 mi Calm Calm - N/A   Clear
3:53 AM 62.1 °F - 60.1 °F 93% 30.07 in 6.0 mi Calm Calm - N/A   Clear
4:53 AM 60.1 °F - 59.0 °F 96% 30.05 in 5.0 mi Calm Calm - N/A   Clear
5:53 AM 60.1 °F - 59.0 °F 96% 30.08 in 1.8 mi Calm Calm - N/A   Clear
6:02 AM 60.8 °F - 60.8 °F 100% 30.10 in 2.0 mi Calm Calm - N/A   Clear
6:17 AM 62.6 °F - 60.8 °F 94% 30.11 in 4.0 mi Calm Calm - N/A   Clear
6:25 AM 62.6 °F - 60.8 °F 94% 30.12 in 4.0 mi Calm Calm - N/A   Scattered Clouds
7:50 AM 64.4 °F - 64.4 °F 100% 30.11 in 4.0 mi South 3.5 mph - N/A   Scattered Clouds
7:53 AM 66.0 °F - 64.0 °F 93% 30.11 in 4.0 mi SSW 4.6 mph - N/A   Scattered Clouds
8:53 AM 71.1 °F - 64.0 °F 78% 30.13 in 10.0 mi SW 6.9 mph - N/A   Scattered Clouds
9:53 AM 72.0 °F - 62.1 °F 71% 30.16 in 10.0 mi WSW 5.8 mph - N/A   Partly Cloudy
10:53 AM 73.9 °F - 61.0 °F 64% 30.16 in 10.0 mi WSW 5.8 mph - N/A   Partly Cloudy
11:53 AM 75.0 °F - 57.9 °F 55% 30.15 in 10.0 mi SW 10.4 mph - N/A   Partly Cloudy
12:53 PM 75.9 °F - 59.0 °F 56% 30.12 in 10.0 mi SW 9.2 mph - N/A   Partly Cloudy
1:53 PM 77.0 °F - 59.0 °F 54% 30.09 in 10.0 mi SSW 12.7 mph - N/A   Scattered Clouds
2:53 PM 80.1 °F 80.7 °F 59.0 °F 48% 29.99 in 10.0 mi SSE 20.7 mph 27.6 mph N/A   Clear
3:53 PM 80.1 °F 80.6 °F 57.9 °F 47% 30.02 in 10.0 mi SSW 13.8 mph 19.6 mph N/A   Clear
4:53 PM 80.1 °F 80.0 °F 54.0 °F 40% 30.02 in 10.0 mi SW 15.0 mph 19.6 mph N/A   Clear
5:53 PM 77.0 °F - 54.0 °F 45% 29.99 in 10.0 mi South 10.4 mph - N/A   Clear
6:53 PM 75.0 °F - 53.1 °F 46% 30.00 in 10.0 mi SSW 9.2 mph - N/A   Clear
7:53 PM 71.1 °F - 55.0 °F 57% 30.02 in 10.0 mi South 5.8 mph - N/A   Clear
8:53 PM 71.1 °F - 57.0 °F 61% 30.05 in 10.0 mi SSW 8.1 mph - N/A   Clear
9:53 PM 69.1 °F - 61.0 °F 75% 30.06 in 10.0 mi SW 8.1 mph - N/A   Clear
10:53 PM 68.0 °F - 62.1 °F 81% 30.04 in 10.0 mi SSW 9.2 mph - N/A   Clear
11:53 PM 66.9 °F - 63.0 °F 87% 30.03 in 10.0 mi South 8.1 mph - N/A   Clear